Weather in Pasuruan

Indonesia     7°39′14″S   112°54′27″E
temp.,
°C
wind,
m/s
gust,
m/s
humid.,
%
clouds,
%
prec.,
mm/h
press.,
hPa
HPBL,
m
27 february, sat
sat2701:00+22ssw1285100 0.1 100829
04:00+22s128216 0.0 100731
07:00+25sw017648 0.0 100980
10:00+29nne117244 2.0 1009462
13:00+28nne117370 8.1 1007693
16:00+25n0289100 6.3 1006144
19:00+23se1293100 11.9 100954
22:00+23s1292100 3.5 101166
28 february, sun
sun2801:00+22wsw1293100 4.3 101044
04:00+22sse1291100 0.3 100947
07:00+22ssw1186100 0.3 101147
10:00+27n127399 0.1 1010492
13:00+27nne117799 1.0 1008553
16:00+25ene2286100 2.3 1006322
19:00+22s119299 4.6 100955
22:00+22sw129093 0.3 101133
1 march, mon
mon101:00+21sw129189 1.0 100935
04:00+21sw128878 0.6 100938
07:00+23sw018382 0.8 101067
10:00+24nnw018696 0.1 1011186
13:00+27n127196 0.3 1008622
16:00+24w019391 2.5 100895
19:00+22ssw118989 3.7 101047
22:00+22s128599 0.1 101141
2 march, tue
tue201:00+22sw118399 0.3 100964
04:00+22sw1183100 0.1 100938
07:00+23wsw118099 0.1 101061
10:00+28nnw346539 0.0 1011726
13:00+29nw345939 0.8 1008850
16:00+26wnw136796 0.6 1007253
19:00+24sse227797 0.8 100956
22:00+23ssw117692 0.3 101146
3 march, wed
wed301:00+23ssw117696 0.4 100948
04:00+22ssw1179100 0.1 100941
07:00+24sse0177100 0.2 101045
10:00+27n2268100 0.1 1010549
13:00+27nnw1269100 0.8 1008471
16:00+26nne1277100 1.2 1007378
19:00+22ssw1192100 3.8 101028
22:00+22ssw119195 0.1 101133